Cherokee, IA

6:58 PM CDT on April 29, 2017 (GMT -0500)
Cherokee Municipal

Weather History for KCKP - November, 2012

Change the Weather History Date:

Tuesday, November 13, 2012

  Actual Average Record
Temperature  
Mean Temperature 32 °F -  
Max Temperature 49 °F 41 °F 67 °F (1952)
Min Temperature 15 °F 23 °F -4 °F (1986)
Degree Days  
Heating Degree Days 33    
Moisture  
Dew Point 22 °F    
Average Humidity 68    
Maximum Humidity 95    
Minimum Humidity 30    
Precipitation  
Precipitation 0.00 in - - ()
Sea Level Pressure  
Sea Level Pressure 30.29 in    
Wind  
Wind Speed 3 mph (South)    
Max Wind Speed 14 mph    
Max Gust Speed 18 mph    
Visibility 10 miles    
Events      
Averages and records for this station are not official NWS values.
T = Trace of Precipitation, MM = Missing Value Source: NWS Daily Summary

Daily Weather History Graph

Daily Weather History Graph

Search for Another Location

Airport or City:

Trip Planner

Search our weather history database for the weather conditions in past years. The results will help you decide how hot, cold, wet, or windy it might be!

Date:

Astronomy

Nov. 13, 2012 Rise Set
Actual Time 7:12 AM CST 5:00 PM CST
Civil Twilight 6:41 AM CST 5:30 PM CST
Nautical Twilight 6:07 AM CST 6:05 PM CST
Astronomical Twilight 5:34 AM CST 6:38 PM CST
Moon 6:51 AM CST (11/13) 4:53 PM CST (11/13)
Length of Visible Light 10h 49m
Length of Day
9h 48m
Waning Crescent, 0% of the Moon is Illuminated
Nov 13
Waning Crescent
Nov 13
New
Nov 20
First Quarter
Nov 28
Full
Dec 6
Last Quarter

Hourly Weather History & Observations

Time (CST) Temp. Windchill Dew Point Humidity Pressure Visibility Wind Dir Wind Speed Gust Speed Precip Events Conditions
12:15 AM 19.8 °F - 16.5 °F 87% 30.33 in 10.0 mi Calm Calm - N/A   Clear
12:35 AM 18.0 °F 12.7 °F 14.2 °F 85% 30.34 in 10.0 mi SSW 3.5 mph - N/A   Clear
12:55 AM 18.9 °F - 16.3 °F 90% 30.33 in 10.0 mi Calm Calm - N/A   Clear
1:15 AM 18.9 °F - 15.8 °F 88% 30.33 in 10.0 mi Calm Calm - N/A   Clear
1:35 AM 18.5 °F - 16.2 °F 91% 30.33 in 10.0 mi Calm Calm - N/A   Clear
1:55 AM 17.1 °F - 14.5 °F 90% 30.33 in 10.0 mi Calm Calm - N/A   Clear
2:15 AM 16.7 °F - 14.9 °F 93% 30.33 in 10.0 mi Calm Calm - N/A   Clear
2:35 AM 15.8 °F - 14.0 °F 93% 30.34 in 10.0 mi Calm Calm - N/A   Clear
2:55 AM 16.3 °F - 14.9 °F 94% 30.34 in 10.0 mi Calm Calm - N/A   Clear
3:15 AM 17.6 °F - 16.3 °F 95% 30.33 in 10.0 mi Calm Calm - N/A   Clear
3:35 AM 16.9 °F - 15.3 °F 93% 30.33 in 10.0 mi Calm Calm - N/A   Clear
3:55 AM 17.4 °F - 16.0 °F 94% 30.33 in 10.0 mi Calm Calm - N/A   Clear
4:15 AM 16.9 °F - 15.4 °F 94% 30.33 in 10.0 mi Calm Calm - N/A   Clear
4:35 AM 16.9 °F - 15.6 °F 95% 30.33 in 10.0 mi Calm Calm - N/A   Clear
4:55 AM 16.5 °F - 15.3 °F 95% 30.33 in 10.0 mi Calm Calm - N/A   Clear
5:15 AM 16.7 °F - 15.4 °F 95% 30.33 in 10.0 mi Calm Calm - N/A   Clear
5:35 AM 18.5 °F - 16.2 °F 91% 30.33 in 10.0 mi Calm Calm - N/A   Clear
5:55 AM 17.2 °F - 14.7 °F 90% 30.33 in 10.0 mi Calm Calm - N/A   Clear
6:15 AM 18.3 °F 13.1 °F 15.4 °F 89% 30.33 in 10.0 mi SSE 3.5 mph - N/A   Clear
6:35 AM 17.8 °F 12.5 °F 14.9 °F 88% 30.33 in 10.0 mi South 3.5 mph - N/A   Clear
6:55 AM 18.9 °F 12.1 °F 16.0 °F 89% 30.33 in 10.0 mi SE 4.6 mph - N/A   Clear
7:15 AM 19.2 °F - 15.8 °F 87% 30.33 in 10.0 mi Calm Calm - N/A   Clear
7:35 AM 18.1 °F - 14.9 °F 87% 30.33 in 10.0 mi Calm Calm - N/A   Clear
7:55 AM 18.5 °F - 16.0 °F 90% 30.33 in 10.0 mi Calm Calm - N/A   Clear
8:15 AM 21.4 °F - 19.0 °F 91% 30.33 in 10.0 mi Calm Calm - N/A   Clear
8:35 AM 25.0 °F - 20.7 °F 84% 30.33 in 10.0 mi Calm Calm - N/A   Clear
8:55 AM 27.0 °F - 21.9 °F 81% 30.33 in 10.0 mi Calm Calm - N/A   Clear
9:15 AM 30.6 °F 24.7 °F 22.8 °F 73% 30.33 in 10.0 mi South 5.8 mph - N/A   Clear
9:35 AM 32.0 °F 26.4 °F 22.8 °F 69% 30.33 in 10.0 mi South 5.8 mph - N/A   Clear
9:55 AM 33.6 °F 27.5 °F 23.9 °F 68% 30.33 in 10.0 mi South 6.9 mph - N/A   Clear
10:15 AM 35.8 °F 29.4 °F 24.6 °F 64% 30.33 in 10.0 mi SSW 8.1 mph - N/A   Clear
10:35 AM 37.9 °F 32.7 °F 23.5 °F 56% 30.33 in 10.0 mi South 6.9 mph - N/A   Clear
10:55 AM 39.7 °F 34.9 °F 21.2 °F 48% 30.32 in 10.0 mi South 6.9 mph - N/A   Clear
11:15 AM 41.9 °F 37.5 °F 20.3 °F 42% 30.31 in 10.0 mi South 6.9 mph - N/A   Clear
11:35 AM 45.1 °F 40.8 °F 20.7 °F 38% 30.30 in 10.0 mi South 8.1 mph - N/A   Clear
11:55 AM 46.6 °F - 19.0 °F 33% 30.28 in 10.0 mi South 9.2 mph - N/A   Clear
12:15 PM 47.8 °F - 19.6 °F 33% 30.27 in 10.0 mi South 8.1 mph - N/A   Clear
12:35 PM 49.3 °F - 19.4 °F 31% 30.27 in 10.0 mi SSW 13.8 mph 17.3 mph N/A   Clear
12:55 PM 49.1 °F - 19.0 °F 30% 30.27 in 10.0 mi SSW 13.8 mph 18.4 mph N/A   Clear
1:15 PM 48.4 °F - 20.1 °F 33% 30.26 in 10.0 mi South 13.8 mph - N/A   Clear
1:35 PM 48.2 °F - 20.1 °F 33% 30.26 in 10.0 mi South 11.5 mph - N/A   Scattered Clouds
1:55 PM 48.2 °F - 19.4 °F 32% 30.25 in 10.0 mi SSW 10.4 mph - N/A   Overcast
2:15 PM 48.2 °F - 20.1 °F 33% 30.25 in 10.0 mi South 12.7 mph - N/A   Overcast
2:35 PM 46.8 °F - 20.1 °F 35% 30.24 in 10.0 mi South 10.4 mph - N/A   Mostly Cloudy
2:55 PM 47.3 °F - 22.6 °F 38% 30.23 in 10.0 mi South 10.4 mph - N/A   Overcast
3:15 PM 47.3 °F - 23.5 °F 39% 30.23 in 10.0 mi South 8.1 mph - N/A   Overcast
3:35 PM 47.5 °F - 25.0 °F 41% 30.23 in 10.0 mi South 8.1 mph - N/A   Overcast
3:55 PM 46.4 °F 42.9 °F 25.3 °F 44% 30.23 in 10.0 mi SSE 6.9 mph - N/A   Overcast
4:15 PM 45.7 °F 42.0 °F 26.1 °F 46% 30.23 in 10.0 mi SSE 6.9 mph - N/A   Mostly Cloudy
4:35 PM 44.6 °F 41.4 °F 27.1 °F 50% 30.23 in 10.0 mi South 5.8 mph - N/A   Mostly Cloudy
4:55 PM 44.1 °F 42.5 °F 26.6 °F 50% 30.23 in 10.0 mi SSE 3.5 mph - N/A   Mostly Cloudy
5:15 PM 42.4 °F - 26.4 °F 53% 30.22 in 10.0 mi Calm Calm - N/A   Scattered Clouds
5:35 PM 40.6 °F - 26.2 °F 57% 30.22 in 10.0 mi Calm Calm - N/A   Clear
5:55 PM 41.9 °F 39.0 °F 26.2 °F 54% 30.22 in 10.0 mi South 4.6 mph - N/A   Scattered Clouds
6:15 PM 41.0 °F 38.0 °F 26.8 °F 57% 30.23 in 10.0 mi SSE 4.6 mph - N/A   Clear
6:35 PM 39.9 °F - 27.0 °F 60% 30.23 in 10.0 mi Calm Calm - N/A   Clear
6:55 PM 39.6 °F 37.4 °F 27.1 °F 61% 30.23 in 10.0 mi South 3.5 mph - N/A   Clear
7:15 PM 38.7 °F 36.3 °F 27.3 °F 64% 30.23 in 10.0 mi SSE 3.5 mph - N/A   Clear
7:35 PM 39.0 °F 35.7 °F 27.5 °F 63% 30.23 in 10.0 mi South 4.6 mph - N/A   Scattered Clouds
7:55 PM 37.9 °F - 27.9 °F 67% 30.24 in 10.0 mi Calm Calm - N/A   Mostly Cloudy
8:15 PM 38.5 °F - 28.0 °F 66% 30.24 in 10.0 mi Calm Calm - N/A   Scattered Clouds
8:35 PM 37.4 °F - 27.9 °F 68% 30.25 in 10.0 mi Calm Calm - N/A   Clear
8:55 PM 36.7 °F 34.1 °F 28.2 °F 71% 30.25 in 10.0 mi SE 3.5 mph - N/A   Clear
9:15 PM 38.8 °F 33.8 °F 27.7 °F 64% 30.25 in 10.0 mi SE 6.9 mph - N/A   Clear
9:35 PM 36.9 °F - 28.4 °F 71% 30.26 in 10.0 mi Calm Calm - N/A   Clear
9:55 PM 36.0 °F - 28.2 °F 73% 30.26 in 10.0 mi Calm Calm - N/A   Clear
10:15 PM 34.2 °F - 28.9 °F 81% 30.26 in 10.0 mi Calm Calm - N/A   Clear
10:35 PM 36.7 °F 31.2 °F 30.7 °F 79% 30.26 in 10.0 mi SSE 6.9 mph - N/A   Clear
10:55 PM 38.3 °F 33.9 °F 30.7 °F 74% 30.25 in 10.0 mi South 5.8 mph - N/A   Clear
11:15 PM 35.2 °F 31.2 °F 30.0 °F 81% 30.25 in 10.0 mi South 4.6 mph - N/A   Clear
11:35 PM 35.4 °F 29.0 °F 31.1 °F 84% 30.24 in 10.0 mi South 8.1 mph - N/A   Clear
11:55 PM 38.5 °F 32.7 °F 31.1 °F 75% 30.24 in 10.0 mi South 8.1 mph - N/A   Clear